Time,TemperatureF,DewpointF,PressureIn,WindDirection,WindDirectionDegrees,WindSpeedMPH,WindSpeedGustMPH,Humidity,HourlyPrecipIn,Conditions,Clouds,dailyrainin,SoftwareType,DateUTC
2013-02-15 00:00:00,32.2,26.7,29.99,SSW,201,0.0,0.0,80,0.00,,,0.01,Wunderground v.1.15,2013-02-15 05:00:00,
2013-02-15 00:05:00,31.8,26.6,29.99,SSW,201,0.0,0.0,81,0.00,,,0.00,Wunderground v.1.15,2013-02-15 05:05:00,
2013-02-15 00:10:00,31.6,26.1,29.99,SSW,201,0.0,0.0,80,0.00,,,0.00,Wunderground v.1.15,2013-02-15 05:10:00,
2013-02-15 00:20:00,30.8,26.0,29.99,SSW,201,0.0,0.0,82,0.00,,,0.00,Wunderground v.1.15,2013-02-15 05:20:00,
2013-02-15 00:25:00,30.4,25.6,29.99,SSW,201,0.0,0.0,82,0.00,,,0.00,Wunderground v.1.15,2013-02-15 05:25:00,
2013-02-15 00:35:00,30.0,26.0,29.99,SSW,201,0.0,0.0,85,0.00,,,0.00,Wunderground v.1.15,2013-02-15 05:35:00,
2013-02-15 00:40:00,29.9,25.9,29.98,SSW,201,0.0,0.0,85,0.00,,,0.00,Wunderground v.1.15,2013-02-15 05:40:00,
2013-02-15 00:50:00,29.7,26.0,29.99,SSW,201,0.0,0.0,86,0.00,,,0.00,Wunderground v.1.15,2013-02-15 05:50:00,
2013-02-15 01:00:00,29.6,25.9,29.99,SSW,201,0.0,0.0,86,0.00,,,0.00,Wunderground v.1.15,2013-02-15 06:00:00,
2013-02-15 01:05:00,29.5,25.8,29.98,SSW,201,0.0,0.0,86,0.00,,,0.00,Wunderground v.1.15,2013-02-15 06:05:00,
2013-02-15 01:15:00,29.5,25.8,29.98,SSW,201,0.0,0.0,86,0.00,,,0.00,Wunderground v.1.15,2013-02-15 06:15:00,
2013-02-15 01:20:00,29.5,25.8,29.98,SSW,201,0.0,0.0,86,0.00,,,0.00,Wunderground v.1.15,2013-02-15 06:20:00,
2013-02-15 01:25:00,29.4,25.7,29.98,SSW,201,0.0,0.0,86,0.00,,,0.00,Wunderground v.1.15,2013-02-15 06:25:00,
2013-02-15 01:35:00,29.6,25.9,29.98,SSW,201,0.0,0.0,86,0.00,,,0.00,Wunderground v.1.15,2013-02-15 06:35:00,
2013-02-15 01:45:00,29.6,25.6,29.98,SSW,201,0.0,0.0,85,0.00,,,0.00,Wunderground v.1.15,2013-02-15 06:45:00,
2013-02-15 01:50:00,29.6,25.6,29.98,SSW,201,0.0,0.0,85,0.00,,,0.00,Wunderground v.1.15,2013-02-15 06:50:00,
2013-02-15 02:00:00,29.6,25.6,29.98,SSW,201,0.0,0.0,85,0.00,,,0.00,Wunderground v.1.15,2013-02-15 07:00:00,
2013-02-15 02:05:00,29.4,25.4,29.99,SSW,201,0.0,0.0,85,0.00,,,0.00,Wunderground v.1.15,2013-02-15 07:05:00,
2013-02-15 02:15:00,29.1,25.2,29.99,SSW,201,0.0,0.0,85,0.00,,,0.00,Wunderground v.1.15,2013-02-15 07:15:00,
2013-02-15 02:20:00,29.1,25.2,29.99,SSW,201,0.0,0.0,85,0.00,,,0.00,Wunderground v.1.15,2013-02-15 07:20:00,
2013-02-15 02:25:00,29.4,25.7,29.99,SSW,201,0.0,0.0,86,0.00,,,0.00,Wunderground v.1.15,2013-02-15 07:25:00,
2013-02-15 02:35:00,29.9,25.9,29.99,SSW,201,0.0,0.0,85,0.00,,,0.00,Wunderground v.1.15,2013-02-15 07:35:00,
2013-02-15 02:45:00,29.2,25.5,29.99,SSW,201,0.0,0.0,86,0.00,,,0.00,Wunderground v.1.15,2013-02-15 07:45:00,
2013-02-15 02:50:00,28.6,25.2,29.99,SSW,201,0.0,0.0,87,0.00,,,0.00,Wunderground v.1.15,2013-02-15 07:50:00,
2013-02-15 03:00:00,28.1,25.0,29.99,SSW,201,0.0,0.0,88,0.00,,,0.00,Wunderground v.1.15,2013-02-15 08:00:00,
2013-02-15 03:05:00,28.1,25.0,29.99,SSW,201,0.0,0.0,88,0.00,,,0.00,Wunderground v.1.15,2013-02-15 08:05:00,
2013-02-15 03:15:00,28.1,25.0,29.99,SSW,201,0.0,0.0,88,0.00,,,0.00,Wunderground v.1.15,2013-02-15 08:15:00,
2013-02-15 03:20:00,28.0,24.9,29.99,SSW,201,0.0,0.0,88,0.00,,,0.00,Wunderground v.1.15,2013-02-15 08:20:00,
2013-02-15 03:25:00,28.0,24.9,29.99,SSW,201,0.0,0.0,88,0.00,,,0.00,Wunderground v.1.15,2013-02-15 08:25:00,
2013-02-15 03:35:00,27.6,24.5,29.99,SSW,201,0.0,0.0,88,0.00,,,0.00,Wunderground v.1.15,2013-02-15 08:35:00,
2013-02-15 03:45:00,27.4,24.3,29.99,SSW,201,0.0,0.0,88,0.00,,,0.00,Wunderground v.1.15,2013-02-15 08:45:00,
2013-02-15 03:50:00,27.4,24.6,29.99,SSW,201,0.0,0.0,89,0.00,,,0.00,Wunderground v.1.15,2013-02-15 08:50:00,
2013-02-15 03:55:00,27.4,24.6,29.98,SSW,201,0.0,0.0,89,0.00,,,0.00,Wunderground v.1.15,2013-02-15 08:55:00,
2013-02-15 04:05:00,27.4,24.6,29.99,SSW,201,0.0,0.0,89,0.00,,,0.00,Wunderground v.1.15,2013-02-15 09:05:00,
2013-02-15 04:15:00,27.6,24.8,29.98,SSW,201,0.0,0.0,89,0.00,,,0.00,Wunderground v.1.15,2013-02-15 09:15:00,
2013-02-15 04:20:00,27.7,24.9,29.99,SSW,201,0.0,0.0,89,0.00,,,0.00,Wunderground v.1.15,2013-02-15 09:20:00,
2013-02-15 04:25:00,27.5,24.7,29.99,SSW,201,0.0,0.0,89,0.00,,,0.00,Wunderground v.1.15,2013-02-15 09:25:00,
2013-02-15 04:35:00,27.5,24.7,29.99,SSW,201,0.0,0.0,89,0.00,,,0.00,Wunderground v.1.15,2013-02-15 09:35:00,
2013-02-15 04:40:00,27.4,24.6,29.99,SSW,201,0.0,0.0,89,0.00,,,0.00,Wunderground v.1.15,2013-02-15 09:40:00,
2013-02-15 04:50:00,27.6,24.8,29.99,SSW,201,0.0,0.0,89,0.00,,,0.00,Wunderground v.1.15,2013-02-15 09:50:00,
2013-02-15 04:55:00,27.7,24.9,29.99,SSW,201,0.0,0.0,89,0.00,,,0.00,Wunderground v.1.15,2013-02-15 09:55:00,
2013-02-15 05:05:00,27.2,24.4,30.00,SSW,201,0.0,0.0,89,0.00,,,0.00,Wunderground v.1.15,2013-02-15 10:05:00,
2013-02-15 05:15:00,26.9,24.1,30.00,SSW,201,0.0,0.0,89,0.00,,,0.00,Wunderground v.1.15,2013-02-15 10:15:00,
2013-02-15 05:25:00,26.6,23.8,30.00,SSW,201,0.0,0.0,89,0.00,,,0.00,Wunderground v.1.15,2013-02-15 10:25:00,
2013-02-15 05:30:00,26.4,23.6,30.00,SSW,201,0.0,0.0,89,0.00,,,0.00,Wunderground v.1.15,2013-02-15 10:30:00,
2013-02-15 05:40:00,26.2,23.7,30.00,SSW,201,0.0,0.0,90,0.00,,,0.00,Wunderground v.1.15,2013-02-15 10:40:00,
2013-02-15 05:50:00,26.3,23.8,30.00,SSW,201,0.0,0.0,90,0.00,,,0.00,Wunderground v.1.15,2013-02-15 10:50:00,
2013-02-15 05:55:00,26.3,23.8,30.00,SSW,201,0.0,0.0,90,0.00,,,0.00,Wunderground v.1.15,2013-02-15 10:55:00,
2013-02-15 06:00:00,26.3,23.8,30.00,SSW,201,0.0,0.0,90,0.00,,,0.00,Wunderground v.1.15,2013-02-15 11:00:00,
2013-02-15 06:05:00,26.2,23.7,30.01,SSW,201,0.0,0.0,90,0.00,,,0.00,Wunderground v.1.15,2013-02-15 11:05:00,
2013-02-15 06:15:00,26.2,23.7,30.00,SSW,201,0.0,0.0,90,0.00,,,0.00,Wunderground v.1.15,2013-02-15 11:15:00,
2013-02-15 06:25:00,26.6,24.3,30.01,SSW,206,0.0,0.0,91,0.00,,,0.00,Wunderground v.1.15,2013-02-15 11:25:00,
2013-02-15 06:30:00,26.6,24.1,30.01,SSW,207,0.0,0.0,90,0.00,,,0.00,Wunderground v.1.15,2013-02-15 11:30:00,
2013-02-15 06:40:00,26.7,24.2,30.01,SSW,207,0.0,0.0,90,0.00,,,0.00,Wunderground v.1.15,2013-02-15 11:40:00,
2013-02-15 06:45:00,26.9,24.4,30.01,SSW,206,0.0,0.0,90,0.00,,,0.00,Wunderground v.1.15,2013-02-15 11:45:00,
2013-02-15 06:55:00,27.2,24.9,30.01,SSW,206,0.0,0.0,91,0.00,,,0.00,Wunderground v.1.15,2013-02-15 11:55:00,
2013-02-15 07:05:00,27.0,24.2,30.01,SSW,206,0.0,0.0,89,0.00,,,0.00,Wunderground v.1.15,2013-02-15 12:05:00,
2013-02-15 07:15:00,26.6,23.8,30.01,SSW,206,0.0,0.0,89,0.00,,,0.00,Wunderground v.1.15,2013-02-15 12:15:00,
2013-02-15 07:20:00,26.2,23.4,30.01,SSW,206,0.0,0.0,89,0.00,,,0.00,Wunderground v.1.15,2013-02-15 12:20:00,
2013-02-15 07:30:00,25.7,23.4,30.01,SSW,206,0.0,0.0,91,0.00,,,0.00,Wunderground v.1.15,2013-02-15 12:30:00,
2013-02-15 07:40:00,25.5,23.2,30.01,SSW,206,0.0,0.0,91,0.00,,,0.00,Wunderground v.1.15,2013-02-15 12:40:00,
2013-02-15 07:50:00,25.8,23.8,30.02,SSW,207,0.0,0.0,92,0.00,,,0.00,Wunderground v.1.15,2013-02-15 12:50:00,
2013-02-15 07:55:00,26.0,24.0,30.02,SSW,207,0.0,0.0,92,0.00,,,0.00,Wunderground v.1.15,2013-02-15 12:55:00,
2013-02-15 08:05:00,26.4,24.1,30.02,SSW,207,0.0,0.0,91,0.00,,,0.00,Wunderground v.1.15,2013-02-15 13:05:00,
2013-02-15 08:15:00,26.9,24.6,30.02,SSW,206,0.0,0.0,91,0.00,,,0.00,Wunderground v.1.15,2013-02-15 13:15:00,
2013-02-15 08:20:00,27.3,25.0,30.02,SSW,207,0.0,0.0,91,0.00,,,0.00,Wunderground v.1.15,2013-02-15 13:20:00,
2013-02-15 08:30:00,28.5,26.2,30.03,SSW,207,0.0,0.0,91,0.00,,,0.00,Wunderground v.1.15,2013-02-15 13:30:00,
2013-02-15 08:40:00,29.2,26.4,30.03,SSW,206,0.0,0.0,89,0.00,,,0.00,Wunderground v.1.15,2013-02-15 13:40:00,
2013-02-15 08:45:00,29.4,26.8,30.03,SSW,207,0.0,0.0,90,0.00,,,0.00,Wunderground v.1.15,2013-02-15 13:45:00,
2013-02-15 08:55:00,30.0,27.4,30.03,SSW,207,0.0,0.0,90,0.00,,,0.00,Wunderground v.1.15,2013-02-15 13:55:00,
2013-02-15 09:00:00,30.3,27.7,30.02,SSW,208,0.0,0.0,90,0.00,,,0.00,Wunderground v.1.15,2013-02-15 14:00:00,
2013-02-15 09:05:00,31.0,28.7,30.03,SSW,207,0.0,0.0,91,0.00,,,0.00,Wunderground v.1.15,2013-02-15 14:05:00,
2013-02-15 09:15:00,32.3,29.7,30.02,SSW,207,0.0,0.0,90,0.00,,,0.00,Wunderground v.1.15,2013-02-15 14:15:00,
2013-02-15 09:20:00,32.9,30.0,30.02,SSW,206,0.0,0.0,89,0.00,,,0.00,Wunderground v.1.15,2013-02-15 14:20:00,
2013-02-15 09:30:00,34.2,31.0,30.02,SSW,207,0.0,0.0,88,0.00,,,0.00,Wunderground v.1.15,2013-02-15 14:30:00,
2013-02-15 09:35:00,34.6,31.4,30.02,SSW,207,0.0,0.0,88,0.00,,,0.00,Wunderground v.1.15,2013-02-15 14:35:00,
2013-02-15 09:45:00,36.4,32.9,30.02,SSE,168,0.0,2.0,87,0.00,,,0.00,Wunderground v.1.15,2013-02-15 14:45:00,
2013-02-15 09:55:00,38.8,34.7,30.02,South,177,0.0,0.0,85,0.00,,,0.00,Wunderground v.1.15,2013-02-15 14:55:00,
2013-02-15 10:00:00,40.0,35.3,30.02,South,177,0.0,0.0,83,0.00,,,0.00,Wunderground v.1.15,2013-02-15 15:00:00,
2013-02-15 10:05:00,41.0,35.6,30.02,South,177,0.0,3.0,81,0.00,,,0.00,Wunderground v.1.15,2013-02-15 15:05:00,
2013-02-15 10:15:00,43.3,36.6,30.02,South,178,0.0,1.0,77,0.00,,,0.00,Wunderground v.1.15,2013-02-15 15:15:00,
2013-02-15 10:20:00,44.3,36.9,30.02,SSE,165,0.0,0.0,75,0.00,,,0.00,Wunderground v.1.15,2013-02-15 15:20:00,
2013-02-15 10:30:00,46.6,37.3,30.01,SSE,158,1.0,1.0,70,0.00,,,0.00,Wunderground v.1.15,2013-02-15 15:30:00,
2013-02-15 10:40:00,48.8,37.9,30.01,South,189,1.0,1.0,66,0.00,,,0.00,Wunderground v.1.15,2013-02-15 15:40:00,
2013-02-15 10:45:00,49.6,37.9,30.01,South,185,1.0,2.0,64,0.00,,,0.00,Wunderground v.1.15,2013-02-15 15:45:00,
2013-02-15 10:50:00,50.3,38.6,30.00,SSE,154,1.0,1.0,64,0.00,,,0.00,Wunderground v.1.15,2013-02-15 15:50:00,
2013-02-15 11:00:00,51.5,38.5,30.00,SSW,201,1.0,1.0,61,0.00,,,0.00,Wunderground v.1.15,2013-02-15 16:00:00,
2013-02-15 11:05:00,52.0,38.1,30.00,South,172,0.0,1.0,59,0.00,,,0.00,Wunderground v.1.15,2013-02-15 16:05:00,
2013-02-15 11:15:00,52.9,38.1,30.00,SSE,157,1.0,1.0,57,0.00,,,0.00,Wunderground v.1.15,2013-02-15 16:15:00,
2013-02-15 11:20:00,53.3,37.5,29.99,SSW,208,1.0,1.0,55,0.00,,,0.00,Wunderground v.1.15,2013-02-15 16:20:00,
2013-02-15 11:25:00,53.8,36.6,29.99,NNE,15,1.0,1.0,52,0.00,,,0.00,Wunderground v.1.15,2013-02-15 16:25:00,
2013-02-15 11:35:00,54.8,37.5,29.98,South,176,1.0,1.0,52,0.00,,,0.00,Wunderground v.1.15,2013-02-15 16:35:00,
2013-02-15 11:45:00,55.7,36.8,29.98,SSE,155,1.0,4.0,49,0.00,,,0.00,Wunderground v.1.15,2013-02-15 16:45:00,
2013-02-15 11:50:00,55.6,37.2,29.98,South,181,1.0,1.0,50,0.00,,,0.00,Wunderground v.1.15,2013-02-15 16:50:00,
2013-02-15 12:00:00,56.2,38.3,29.97,WSW,237,1.0,3.0,51,0.00,,,0.00,Wunderground v.1.15,2013-02-15 17:00:00,
2013-02-15 12:05:00,56.6,38.2,29.97,WSW,245,1.0,3.0,50,0.00,,,0.00,Wunderground v.1.15,2013-02-15 17:05:00,
2013-02-15 12:15:00,57.2,38.7,29.97,SW,216,1.0,2.0,50,0.00,,,0.00,Wunderground v.1.15,2013-02-15 17:15:00,
2013-02-15 12:20:00,57.3,38.3,29.96,NW,326,1.0,3.0,49,0.00,,,0.00,Wunderground v.1.15,2013-02-15 17:20:00,
2013-02-15 12:30:00,57.3,38.8,29.96,South,171,1.0,1.0,50,0.00,,,0.00,Wunderground v.1.15,2013-02-15 17:30:00,
2013-02-15 12:35:00,57.4,38.9,29.95,South,174,1.0,1.0,50,0.00,,,0.00,Wunderground v.1.15,2013-02-15 17:35:00,
2013-02-15 12:45:00,58.1,38.5,29.94,SSE,168,1.0,1.0,48,0.00,,,0.00,Wunderground v.1.15,2013-02-15 17:45:00,
2013-02-15 12:50:00,58.4,38.2,29.94,SSE,160,2.0,2.0,47,0.00,,,0.00,Wunderground v.1.15,2013-02-15 17:50:00,
2013-02-15 13:00:00,59.0,39.9,29.94,ESE,123,1.0,1.0,49,0.00,,,0.00,Wunderground v.1.15,2013-02-15 18:00:00,
2013-02-15 13:05:00,59.0,38.8,29.93,SSE,157,1.0,1.0,47,0.00,,,0.00,Wunderground v.1.15,2013-02-15 18:05:00,
2013-02-15 13:15:00,59.3,38.5,29.92,SSW,194,2.0,2.0,46,0.00,,,0.00,Wunderground v.1.15,2013-02-15 18:15:00,
2013-02-15 13:20:00,59.5,38.1,29.92,South,169,2.0,4.0,45,0.00,,,0.00,Wunderground v.1.15,2013-02-15 18:20:00,
2013-02-15 13:25:00,59.6,39.3,29.92,South,176,1.0,4.0,47,0.00,,,0.00,Wunderground v.1.15,2013-02-15 18:25:00,
2013-02-15 13:35:00,59.9,39.1,29.92,West,262,1.0,3.0,46,0.00,,,0.00,Wunderground v.1.15,2013-02-15 18:35:00,
2013-02-15 13:45:00,59.9,38.5,29.91,South,181,2.0,4.0,45,0.00,,,0.00,Wunderground v.1.15,2013-02-15 18:45:00,
2013-02-15 13:50:00,60.5,38.5,29.91,South,189,1.0,2.0,44,0.00,,,0.00,Wunderground v.1.15,2013-02-15 18:50:00,
2013-02-15 14:00:00,61.0,38.9,29.91,South,187,2.0,2.0,44,0.00,,,0.00,Wunderground v.1.15,2013-02-15 19:00:00,
2013-02-15 14:05:00,60.2,38.2,29.91,SSW,196,1.0,2.0,44,0.00,,,0.00,Wunderground v.1.15,2013-02-15 19:05:00,
2013-02-15 14:15:00,59.0,38.2,29.91,South,189,0.0,0.0,46,0.00,,,0.00,Wunderground v.1.15,2013-02-15 19:15:00,
2013-02-15 14:20:00,58.9,37.6,29.90,SSW,204,0.0,0.0,45,0.00,,,0.00,Wunderground v.1.15,2013-02-15 19:20:00,
2013-02-15 14:25:00,58.4,37.1,29.90,WNW,293,0.0,2.0,45,0.00,,,0.00,Wunderground v.1.15,2013-02-15 19:25:00,
2013-02-15 14:35:00,58.1,36.3,29.90,NW,315,1.0,1.0,44,0.00,,,0.00,Wunderground v.1.15,2013-02-15 19:35:00,
2013-02-15 14:45:00,57.6,35.8,29.90,NW,316,0.0,0.0,44,0.00,,,0.00,Wunderground v.1.15,2013-02-15 19:45:00,
2013-02-15 14:50:00,57.5,38.5,29.89,NW,318,0.0,0.0,49,0.00,,,0.00,Wunderground v.1.15,2013-02-15 19:50:00,
2013-02-15 15:00:00,58.0,37.3,29.89,SSW,194,0.0,0.0,46,0.00,,,0.00,Wunderground v.1.15,2013-02-15 20:00:00,
2013-02-15 15:05:00,58.8,38.6,29.89,South,172,1.0,1.0,47,0.00,,,0.00,Wunderground v.1.15,2013-02-15 20:05:00,
2013-02-15 15:15:00,59.0,38.2,29.88,SSE,162,1.0,1.0,46,0.00,,,0.00,Wunderground v.1.15,2013-02-15 20:15:00,
2013-02-15 15:20:00,58.5,37.2,29.88,SSE,161,2.0,2.0,45,0.00,,,0.00,Wunderground v.1.15,2013-02-15 20:20:00,
2013-02-15 15:30:00,57.9,37.2,29.87,SSE,168,0.0,0.0,46,0.00,,,0.00,Wunderground v.1.15,2013-02-15 20:30:00,
2013-02-15 15:35:00,57.7,37.6,29.87,South,174,0.0,0.0,47,0.00,,,0.00,Wunderground v.1.15,2013-02-15 20:35:00,
2013-02-15 15:40:00,57.3,37.2,29.87,SSW,212,0.0,1.0,47,0.00,,,0.00,Wunderground v.1.15,2013-02-15 20:40:00,
2013-02-15 15:50:00,57.3,36.7,29.86,South,181,0.0,0.0,46,0.00,,,0.00,Wunderground v.1.15,2013-02-15 20:50:00,
2013-02-15 16:00:00,57.5,36.3,29.86,SSE,162,0.0,0.0,45,0.00,,,0.00,Wunderground v.1.15,2013-02-15 21:00:00,
2013-02-15 16:05:00,57.6,36.4,29.86,SSE,160,1.0,1.0,45,0.00,,,0.00,Wunderground v.1.15,2013-02-15 21:05:00,
2013-02-15 16:15:00,58.2,37.5,29.86,South,191,1.0,1.0,46,0.00,,,0.00,Wunderground v.1.15,2013-02-15 21:15:00,
2013-02-15 16:25:00,58.2,36.9,29.86,SSW,212,1.0,1.0,45,0.00,,,0.00,Wunderground v.1.15,2013-02-15 21:25:00,
2013-02-15 16:35:00,57.8,37.1,29.86,SSE,167,0.0,0.0,46,0.00,,,0.00,Wunderground v.1.15,2013-02-15 21:35:00,
2013-02-15 16:40:00,57.7,36.5,29.86,SSE,166,0.0,0.0,45,0.00,,,0.00,Wunderground v.1.15,2013-02-15 21:40:00,
2013-02-15 16:50:00,57.3,36.7,29.86,SSW,199,1.0,1.0,46,0.00,,,0.00,Wunderground v.1.15,2013-02-15 21:50:00,
2013-02-15 16:55:00,57.3,36.1,29.85,SW,222,1.0,1.0,45,0.00,,,0.00,Wunderground v.1.15,2013-02-15 21:55:00,
2013-02-15 17:05:00,56.9,36.3,29.85,SW,222,0.0,1.0,46,0.00,,,0.00,Wunderground v.1.15,2013-02-15 22:05:00,
2013-02-15 17:15:00,56.6,36.6,29.85,WSW,238,0.0,0.0,47,0.00,,,0.00,Wunderground v.1.15,2013-02-15 22:15:00,
2013-02-15 17:25:00,56.3,35.8,29.86,WSW,257,0.0,0.0,46,0.00,,,0.00,Wunderground v.1.15,2013-02-15 22:25:00,
2013-02-15 17:30:00,56.1,35.6,29.86,WSW,256,0.0,0.0,46,0.00,,,0.00,Wunderground v.1.15,2013-02-15 22:30:00,
2013-02-15 17:40:00,55.7,35.2,29.86,WSW,257,0.0,0.0,46,0.00,,,0.00,Wunderground v.1.15,2013-02-15 22:40:00,
2013-02-15 17:50:00,55.4,34.9,29.86,WSW,258,0.0,0.0,46,0.00,,,0.00,Wunderground v.1.15,2013-02-15 22:50:00,
2013-02-15 17:55:00,55.2,35.3,29.86,WSW,257,0.0,0.0,47,0.00,,,0.00,Wunderground v.1.15,2013-02-15 22:55:00,
2013-02-15 18:05:00,54.8,36.0,29.86,WSW,257,0.0,0.0,49,0.00,,,0.00,Wunderground v.1.15,2013-02-15 23:05:00,
2013-02-15 18:15:00,54.4,35.6,29.87,South,178,0.0,0.0,49,0.00,,,0.00,Wunderground v.1.15,2013-02-15 23:15:00,
2013-02-15 18:25:00,54.1,39.6,29.88,NNE,27,3.0,5.0,58,0.00,,,0.00,Wunderground v.1.15,2013-02-15 23:25:00,
2013-02-15 18:30:00,53.1,40.0,29.88,West,263,4.0,4.0,61,0.00,,,0.00,Wunderground v.1.15,2013-02-15 23:30:00,
2013-02-15 18:40:00,51.7,39.9,29.89,North,354,2.0,2.0,64,0.00,,,0.00,Wunderground v.1.15,2013-02-15 23:40:00,
2013-02-15 18:50:00,50.8,40.6,29.89,WNW,290,3.0,7.0,68,0.00,,,0.00,Wunderground v.1.15,2013-02-15 23:50:00,
2013-02-15 18:55:00,50.2,40.4,29.89,WNW,294,3.0,7.0,69,0.00,,,0.00,Wunderground v.1.15,2013-02-15 23:55:00,
2013-02-15 19:05:00,49.2,40.2,29.91,WNW,289,3.0,3.0,71,0.00,,,0.00,Wunderground v.1.15,2013-02-16 00:05:00,
2013-02-15 19:15:00,48.6,40.3,29.91,North,354,2.0,2.0,73,0.00,,,0.00,Wunderground v.1.15,2013-02-16 00:15:00,
2013-02-15 19:25:00,47.7,40.5,29.92,West,277,2.0,4.0,76,0.00,,,0.00,Wunderground v.1.15,2013-02-16 00:25:00,
2013-02-15 19:30:00,46.9,40.1,29.92,NW,309,3.0,4.0,77,0.00,,,0.00,Wunderground v.1.15,2013-02-16 00:30:00,
2013-02-15 19:40:00,45.9,39.1,29.93,NNW,341,3.0,3.0,77,0.00,,,0.00,Wunderground v.1.15,2013-02-16 00:40:00,
2013-02-15 19:45:00,45.5,38.7,29.94,NNW,345,2.0,3.0,77,0.00,,,0.00,Wunderground v.1.15,2013-02-16 00:45:00,
2013-02-15 19:55:00,45.1,39.0,29.94,North,350,1.0,2.0,79,0.00,,,0.00,Wunderground v.1.15,2013-02-16 00:55:00,
2013-02-15 20:05:00,45.0,38.2,29.95,NW,317,2.0,3.0,77,0.00,,,0.00,Wunderground v.1.15,2013-02-16 01:05:00,
2013-02-15 20:15:00,44.8,38.0,29.96,NW,326,1.0,4.0,77,0.00,,,0.00,Wunderground v.1.15,2013-02-16 01:15:00,
2013-02-15 20:25:00,44.6,37.5,29.96,NW,326,2.0,2.0,76,0.00,,,0.00,Wunderground v.1.15,2013-02-16 01:25:00,
2013-02-15 20:30:00,44.5,37.4,29.97,NNE,15,2.0,2.0,76,0.00,,,0.00,Wunderground v.1.15,2013-02-16 01:30:00,
2013-02-15 20:40:00,44.0,36.9,29.97,NW,326,3.0,3.0,76,0.00,,,0.00,Wunderground v.1.15,2013-02-16 01:40:00,
2013-02-15 20:50:00,43.6,36.5,29.97,West,276,3.0,3.0,76,0.00,,,0.00,Wunderground v.1.15,2013-02-16 01:50:00,
2013-02-15 20:55:00,43.4,36.3,29.97,NNW,341,2.0,3.0,76,0.00,,,0.00,Wunderground v.1.15,2013-02-16 01:55:00,
2013-02-15 21:05:00,43.2,36.1,29.97,NW,320,2.0,4.0,76,0.00,,,0.00,Wunderground v.1.15,2013-02-16 02:05:00,
2013-02-15 21:15:00,43.2,35.8,29.97,North,359,0.0,1.0,75,0.00,,,0.00,Wunderground v.1.15,2013-02-16 02:15:00,
2013-02-15 21:25:00,43.2,35.8,29.97,SW,220,0.0,0.0,75,0.00,,,0.00,Wunderground v.1.15,2013-02-16 02:25:00,
2013-02-15 21:35:00,43.2,35.5,29.98,NNW,339,0.0,0.0,74,0.00,,,0.00,Wunderground v.1.15,2013-02-16 02:35:00,
2013-02-15 21:40:00,43.2,35.8,29.98,NNW,339,0.0,0.0,75,0.00,,,0.00,Wunderground v.1.15,2013-02-16 02:40:00,
2013-02-15 21:50:00,43.2,35.8,29.98,NNW,339,0.0,0.0,75,0.00,,,0.00,Wunderground v.1.15,2013-02-16 02:50:00,
2013-02-15 21:55:00,43.1,35.7,29.97,NNW,339,0.0,0.0,75,0.00,,,0.00,Wunderground v.1.15,2013-02-16 02:55:00,
2013-02-15 22:05:00,42.8,35.4,29.98,NW,311,0.0,1.0,75,0.00,,,0.00,Wunderground v.1.15,2013-02-16 03:05:00,
2013-02-15 22:15:00,42.9,35.2,29.97,NW,315,2.0,3.0,74,0.00,,,0.00,Wunderground v.1.15,2013-02-16 03:15:00,
2013-02-15 22:25:00,42.7,35.0,29.97,NNW,345,1.0,2.0,74,0.00,,,0.00,Wunderground v.1.15,2013-02-16 03:25:00,
2013-02-15 22:30:00,42.7,35.0,29.97,NNW,345,1.0,1.0,74,0.00,,,0.00,Wunderground v.1.15,2013-02-16 03:30:00,
2013-02-15 22:40:00,42.6,34.9,29.98,NNW,344,0.0,0.0,74,0.00,,,0.00,Wunderground v.1.15,2013-02-16 03:40:00,
2013-02-15 22:50:00,42.4,35.0,29.97,NNW,344,0.0,0.0,75,0.00,,,0.00,Wunderground v.1.15,2013-02-16 03:50:00,
2013-02-15 22:55:00,42.4,35.0,29.97,NNW,344,0.0,0.0,75,0.00,,,0.00,Wunderground v.1.15,2013-02-16 03:55:00,
2013-02-15 23:05:00,42.1,35.1,29.97,NNW,344,0.0,0.0,76,0.00,,,0.00,Wunderground v.1.15,2013-02-16 04:05:00,
2013-02-15 23:15:00,41.8,34.5,29.97,NNW,344,0.0,1.0,75,0.00,,,0.00,Wunderground v.1.15,2013-02-16 04:15:00,
2013-02-15 23:25:00,41.7,34.0,29.97,NNW,344,0.0,0.0,74,0.00,,,0.00,Wunderground v.1.15,2013-02-16 04:25:00,
2013-02-15 23:35:00,41.7,34.4,29.97,NNW,344,0.0,0.0,75,0.00,,,0.00,Wunderground v.1.15,2013-02-16 04:35:00,
2013-02-15 23:40:00,41.6,34.6,29.97,NNW,344,0.0,0.0,76,0.00,,,0.00,Wunderground v.1.15,2013-02-16 04:40:00,
2013-02-15 23:50:00,41.5,34.8,29.97,NNW,344,0.0,0.0,77,0.00,,,0.00,Wunderground v.1.15,2013-02-16 04:50:00,
2013-02-15 23:55:00,41.4,34.4,29.97,NNW,344,0.0,1.0,76,0.00,,,0.00,Wunderground v.1.15,2013-02-16 04:55:00,